Raton, NM

9:26 AM MST on November 20, 2017 (GMT -0700)
Raton Municipal-Crews

Weather History for KRTN - April, 2013

Change the Weather History Date:

Wednesday, April 10, 2013

  Actual Average (KTAD) Record (KTAD)
Temperature  
Mean Temperature 24 °F -  
Max Temperature 39 °F 66 °F 83 °F (1960)
Min Temperature 10 °F 33 °F 7 °F (2013)
Degree Days  
Heating Degree Days 40    
Moisture  
Dew Point 11 °F    
Average Humidity 57    
Maximum Humidity 67    
Minimum Humidity 39    
Precipitation  
Precipitation 0.00 in - - ()
Sea Level Pressure  
Sea Level Pressure 30.02 in    
Wind  
Wind Speed 13 mph (NNW)    
Max Wind Speed 20 mph    
Max Gust Speed 25 mph    
Visibility 10 miles    
Events Snow    
Averages and records for this station are not official NWS values.
T = Trace of Precipitation, MM = Missing Value Source: NWS Daily Summary

Daily Weather History Graph

Daily Weather History Graph

Search for Another Location

Airport or City:

Trip Planner

Search our weather history database for the weather conditions in past years. The results will help you decide how hot, cold, wet, or windy it might be!

Date:

Astronomy

Apr. 10, 2013 Rise Set
Actual Time 6:30 AM MDT 7:28 PM MDT
Civil Twilight 6:04 AM MDT 7:54 PM MDT
Nautical Twilight 5:32 AM MDT 8:26 PM MDT
Astronomical Twilight 5:00 AM MDT 8:58 PM MDT
Moon 6:28 AM MDT (4/10) 8:04 PM MDT (4/10)
Length of Visible Light 13h 50m
Length of Day
12h 57m
New Moon, 0% of the Moon is Illuminated
Apr 10
New Moon
Apr 18
First Quarter
Apr 25
Full
May 2
Last Quarter
May 9
New

Hourly Weather History & Observations

Time (MDT) Temp. Windchill Dew Point Humidity Pressure Visibility Wind Dir Wind Speed Gust Speed Precip Events Conditions
12:53 AM 12.0 °F -6.0 °F 3.0 °F 67% 30.07 in 10.0 mi North 19.6 mph - N/A   Clear
1:53 AM 10.9 °F -7.0 °F 1.9 °F 67% 30.09 in 10.0 mi North 18.4 mph - N/A   Clear
2:53 AM 12.0 °F -5.1 °F 3.0 °F 67% 30.10 in 10.0 mi North 17.3 mph - N/A   Overcast
3:20 AM 12.2 °F -5.3 °F 3.2 °F 67% 29.94 in 10.0 mi North 18.4 mph 25.3 mph N/A   Overcast
3:53 AM 12.0 °F -5.6 °F 3.0 °F 67% 30.08 in 10.0 mi North 18.4 mph - N/A   Overcast
4:53 AM 12.0 °F -4.0 °F 3.0 °F 67% 30.05 in 10.0 mi North 15.0 mph 23.0 mph N/A   Overcast
5:53 AM 12.0 °F -5.6 °F 3.0 °F 67% 30.08 in 10.0 mi North 18.4 mph - N/A   Overcast
6:53 AM 12.0 °F -5.1 °F 3.0 °F 67% 30.10 in 10.0 mi North 17.3 mph - N/A   Overcast
7:53 AM 15.1 °F 1.1 °F 5.0 °F 64% 30.10 in 10.0 mi North 12.7 mph - N/A   Overcast
8:53 AM 19.0 °F 6.1 °F 7.0 °F 59% 30.11 in 10.0 mi NNW 12.7 mph 17.3 mph N/A   Overcast
9:53 AM 21.9 °F 10.4 °F 9.0 °F 58% 30.11 in 10.0 mi North 11.5 mph - N/A   Mostly Cloudy
10:53 AM 24.1 °F - 10.0 °F 55% 30.11 in 9.0 mi Calm Calm - 0.00 in Snow Light Snow
11:40 AM 26.6 °F 17.5 °F 14.0 °F 59% 29.97 in 9.0 mi NNE 9.2 mph - 0.00 in   Mostly Cloudy
11:53 AM 26.1 °F 18.4 °F 14.0 °F 60% 30.09 in 10.0 mi Variable 6.9 mph - 0.00 in   Overcast
12:53 PM 28.9 °F 25.2 °F 15.1 °F 56% 30.05 in 10.0 mi Variable 3.5 mph - N/A   Overcast
1:29 PM 32.0 °F 24.8 °F 17.6 °F 55% 29.92 in 5.0 mi North 8.1 mph - 0.00 in Snow Light Snow
1:53 PM 33.1 °F 30.0 °F 16.0 °F 50% 30.01 in 10.0 mi East 3.5 mph - 0.00 in   Overcast
2:53 PM 36.0 °F 33.3 °F 16.0 °F 44% 29.97 in 10.0 mi Variable 3.5 mph - N/A   Overcast
3:53 PM 37.0 °F 31.6 °F 15.1 °F 41% 29.93 in 10.0 mi Variable 6.9 mph - N/A   Overcast
4:53 PM 39.0 °F - 16.0 °F 39% 29.91 in 10.0 mi Calm Calm - N/A   Overcast
5:53 PM 37.9 °F - 16.0 °F 41% 29.93 in 10.0 mi Calm Calm - N/A   Overcast
6:53 PM 37.0 °F 31.6 °F 17.1 °F 44% 29.94 in 10.0 mi SSW 6.9 mph - N/A   Overcast
7:53 PM 35.1 °F 26.4 °F 19.9 °F 54% 29.95 in 10.0 mi SSW 12.7 mph - N/A   Overcast
8:53 PM 35.1 °F 27.4 °F 23.0 °F 61% 29.95 in 10.0 mi SW 10.4 mph - N/A   Overcast
9:53 PM 30.9 °F 26.2 °F 15.1 °F 52% 29.97 in 10.0 mi South 4.6 mph - N/A   Overcast
10:53 PM 28.9 °F 21.1 °F 12.9 °F 51% 29.96 in 10.0 mi South 8.1 mph - N/A   Mostly Cloudy
11:53 PM 25.0 °F 17.1 °F 12.0 °F 58% 29.96 in 5.0 mi SSW 6.9 mph - N/A   Haze